AC2EV Weather Reports


Display with metric or nautical units.
time (UTC)temp
F
wind
direction
speed
MPH
gust
MPH
rain 1hr
in
rain 24hr
in
rain mn
in
humidity
%
barometer
mb
20260904141129 73 231 0.0 0.0 0.00 0.01 0.00 79 1014.2
20260904140630 72 231 0.0 0.0 0.00 0.01 0.00 80 1014.2
20260904140131 71 231 0.0 0.0 0.00 0.01 0.00 81 1014.3
20260904135631 71 231 0.0 0.0 0.00 0.01 0.00 81 1014.3
20260904135131 71 231 0.0 0.0 0.00 0.01 0.00 82 1014.1
20260904134631 71 231 0.0 0.0 0.00 0.01 0.00 83 1014.3
20260904134131 71 231 0.0 0.0 0.00 0.01 0.00 84 1014.3
20260904133630 71 231 0.0 0.0 0.00 0.01 0.00 84 1014.3
20260904133130 70 231 0.0 0.0 0.00 0.01 0.00 85 1014.3
20260904132630 70 231 0.0 0.0 0.00 0.01 0.00 85 1014.3
20260904132128 70 230 0.0 0.0 0.00 0.01 0.00 86 1014.2
20260904131628 69 230 0.0 0.0 0.00 0.01 0.00 87 1014.3
20260904131129 69 230 0.0 0.0 0.00 0.01 0.00 87 1014.2
20260904130626 69 230 0.0 0.0 0.00 0.01 0.00 87 1014.2
20260904130126 69 230 0.0 0.0 0.00 0.01 0.00 87 1014.4
20260904125627 69 230 0.0 0.0 0.00 0.01 0.00 88 1014.4
20260904125124 69 230 0.0 0.0 0.00 0.01 0.00 88 1014.3
20260904124624 68 230 0.0 0.0 0.00 0.01 0.00 88 1014.4
20260904124122 68 230 0.0 0.0 0.00 0.01 0.00 88 1014.3
20260904123620 68 230 0.0 0.0 0.00 0.01 0.00 88 1014.2
20260904123118 67 230 0.0 0.0 0.00 0.01 0.00 89 1014.2
20260904122615 67 230 0.0 0.0 0.00 0.01 0.00 89 1014.2
20260904122116 67 230 0.0 0.0 0.00 0.01 0.00 89 1014.0
20260904121617 67 230 0.0 0.0 0.00 0.01 0.00 89 1014.0
20260904121113 66 230 0.0 0.0 0.00 0.01 0.00 89 1014.0
20260904120612 66 230 0.0 0.0 0.00 0.01 0.00 90 1013.9
20260904120112 66 230 0.0 0.0 0.00 0.01 0.00 90 1014.1
20260904115613 66 230 0.0 0.0 0.00 0.01 0.00 90 1014.1
20260904115112 65 17 0.0 0.0 0.00 0.01 0.00 90 1013.9
20260904114614 65 21 0.0 0.0 0.00 0.01 0.00 90 1013.9
20260904114112 65 19 0.0 0.0 0.00 0.01 0.00 90 1013.9
20260904113612 65 229 0.0 0.0 0.00 0.01 0.00 90 1014.0
20260904113112 65 229 0.0 0.0 0.00 0.01 0.00 90 1014.0
20260904112608 64 230 0.0 0.0 0.00 0.01 0.00 90 1014.0
20260904112107 64 230 0.0 0.0 0.00 0.01 0.00 90 1014.0
20260904111608 64 230 0.0 0.0 0.00 0.01 0.00 90 1013.9
20260904111305 64 230 0.0 0.0 0.00 0.01 0.00 90 1013.9
20260904110607 64 230 0.0 0.0 0.00 0.01 0.00 91 1013.8
20260904110107 64 230 0.0 0.0 0.00 0.01 0.00 90 1013.8
20260904105609 64 230 0.0 0.0 0.00 0.01 0.00 90 1013.8
20260904105108 64 230 0.0 0.0 0.00 0.01 0.00 90 1013.7
20260904104608 64 41 0.0 0.0 0.00 0.01 0.00 90 1013.7
20260904104303 64 40 0.0 0.0 0.00 0.01 0.00 90 1013.6
20260904103607 64 40 0.0 0.0 0.00 0.01 0.00 90 1013.6
20260904103106 64 40 0.0 0.0 0.00 0.01 0.00 90 1013.7
20260904102606 64 40 0.0 0.0 0.00 0.01 0.00 90 1013.6
20260904102106 64 39 0.0 0.0 0.00 0.01 0.00 90 1013.5
20260904101606 64 38 0.0 0.0 0.00 0.01 0.00 90 1013.5
20260904101106 65 38 0.0 0.0 0.00 0.01 0.00 90 1013.3
20260904100605 65 38 0.0 0.0 0.00 0.01 0.00 90 1013.3
20260904100106 65 37 0.0 0.0 0.00 0.01 0.00 90 1013.3
20260904095606 65 37 0.0 0.0 0.00 0.01 0.00 90 1013.3
20260904095103 65 36 0.0 0.0 0.00 0.01 0.00 90 1013.3
20260904094604 65 38 0.0 0.0 0.00 0.01 0.00 89 1013.2
20260904094104 65 37 0.0 0.0 0.00 0.01 0.00 89 1013.3
20260904093603 65 37 0.0 0.0 0.00 0.01 0.00 89 1013.2
20260904093103 65 36 0.0 0.0 0.00 0.01 0.00 89 1013.2
20260904092602 65 34 0.0 0.0 0.00 0.01 0.00 89 1013.3
20260904092059 66 34 0.0 0.0 0.00 0.01 0.00 89 1013.3
20260904091551 66 34 0.0 0.0 0.00 0.01 0.00 89 1013.1
20260904090541 66 36 0.0 0.0 0.00 0.01 0.00 89 1013.1
20260904090038 66 35 0.0 0.0 0.00 0.01 0.00 89 1013.1
20260904085538 66 34 0.0 0.0 0.00 0.01 0.00 89 1013.0
20260904085038 66 32 0.0 0.0 0.00 0.01 0.00 89 1013.0
20260904084536 66 31 0.0 0.0 0.00 0.01 0.00 89 1012.9
20260904084036 66 33 0.0 0.0 0.00 0.01 0.00 89 1012.9
20260904083535 66 33 0.0 0.0 0.00 0.01 0.00 89 1013.0
20260904083037 66 32 0.0 0.0 0.00 0.01 0.00 89 1012.8
20260904082535 66 32 0.0 0.0 0.00 0.01 0.00 89 1012.8
20260904082037 66 34 0.0 0.0 0.00 0.01 0.00 89 1012.8
20260904081535 66 34 0.0 0.0 0.00 0.01 0.00 89 1012.6
20260904081034 66 34 0.0 0.0 0.00 0.01 0.00 89 1012.6
20260904080531 67 34 0.0 0.0 0.00 0.01 0.00 89 1012.5
20260904080032 67 36 0.0 0.0 0.00 0.01 0.00 89 1012.5
20260904075530 67 34 0.0 0.0 0.00 0.01 0.00 89 1012.5
20260904075030 67 36 0.0 0.0 0.00 0.01 0.00 88 1012.6
20260904074530 67 33 0.0 0.0 0.00 0.01 0.00 88 1012.6
20260904074030 67 34 0.0 0.0 0.00 0.01 0.00 88 1012.6
20260904073532 67 32 0.0 0.0 0.00 0.01 0.00 88 1012.5
20260904073027 68 30 0.0 0.0 0.00 0.01 0.00 88 1012.6
20260904072521 68 28 0.0 0.0 0.00 0.01 0.00 88 1012.5
20260904072015 68 28 0.0 0.0 0.00 0.01 0.00 88 1012.4
20260904071516 68 27 0.0 0.0 0.00 0.01 0.00 88 1012.4
20260904071016 68 28 0.0 0.0 0.00 0.01 0.00 88 1012.4
20260904070515 68 29 0.0 0.0 0.00 0.01 0.00 88 1012.4
20260904070014 68 30 0.0 0.0 0.00 0.01 0.00 88 1012.4
20260904065513 68 30 0.0 0.0 0.00 0.01 0.00 89 1012.4
20260904065014 68 30 0.0 0.0 0.00 0.01 0.00 89 1012.3
20260904064512 68 29 0.0 0.0 0.00 0.01 0.00 89 1012.3
20260904064010 68 30 0.0 0.0 0.00 0.01 0.00 89 1012.4
20260904063507 68 30 0.0 0.0 0.00 0.01 0.00 89 1012.3
20260904063006 68 30 0.0 0.0 0.00 0.01 0.00 89 1012.4
20260904062504 68 30 0.0 0.0 0.00 0.01 0.00 89 1012.4
20260904062005 68 32 0.0 0.0 0.00 0.01 0.00 89 1012.4
20260904061505 68 32 0.0 0.0 0.00 0.01 0.00 89 1012.5
20260904061003 68 31 0.0 0.0 0.00 0.01 0.00 89 1012.6
20260904060502 68 32 0.0 0.0 0.00 0.01 0.00 89 1012.6
20260904060004 68 32 0.0 0.0 0.00 0.01 0.00 89 1012.6
20260904055502 68 32 0.0 0.0 0.00 0.01 0.00 89 1012.6
20260904055003 68 32 0.0 0.0 0.00 0.01 0.00 89 1012.7
20260904054502 68 34 0.0 0.0 0.00 0.01 0.00 89 1012.7
20260904054002 68 34 0.0 0.0 0.00 0.01 0.00 89 1012.7
20260904053501 68 34 0.0 0.0 0.00 0.01 0.00 89 1012.8
20260904053002 68 34 0.0 0.0 0.00 0.01 0.00 89 1012.9
20260904052501 68 34 0.0 0.0 0.00 0.01 0.00 90 1012.9
20260904052002 68 34 0.0 0.0 0.00 0.01 0.00 90 1012.8
20260904051501 69 34 0.0 0.0 0.00 0.01 0.00 90 1012.9
20260904051002 69 34 0.0 0.0 0.00 0.01 0.00 90 1012.9
20260904050501 69 34 0.0 0.0 0.00 0.01 0.00 90 1013.0
20260904050002 69 32 0.0 0.0 0.00 0.01 0.00 90 1013.0
20260904045501 69 32 0.0 0.0 0.00 0.01 0.00 90 1012.9
20260904045002 69 32 0.0 0.0 0.00 0.01 0.00 90 1013.0
20260904044501 69 30 0.0 0.0 0.00 0.01 0.00 90 1013.0
20260904044001 69 31 0.0 0.0 0.00 0.01 0.00 90 1013.0
20260904043500 69 30 0.0 0.0 0.00 0.01 0.00 90 1012.9
20260904043002 69 30 0.0 0.0 0.00 0.01 0.00 90 1012.9
20260904042501 69 30 0.0 0.0 0.00 0.01 0.00 90 1012.8
20260904042002 69 29 0.0 0.0 0.00 0.01 0.00 90 1012.8
20260904041501 69 29 0.0 0.0 0.00 0.01 0.00 90 1012.8
20260904041001 69 30 0.0 0.0 0.00 0.01 0.00 90 1012.7
20260904040501 69 30 0.0 0.0 0.00 0.01 0.00 90 1012.7
20260904040004 69 29 0.0 0.0 0.00 0.01 0.00 90 1012.7
20260904035501 69 29 0.0 0.0 0.00 0.01 0.01 90 1012.6
20260904035001 69 29 0.0 0.0 0.00 0.01 0.01 90 1012.6
20260904034500 69 29 0.0 0.0 0.00 0.01 0.01 90 1012.5
20260904034002 69 29 0.0 0.0 0.00 0.01 0.01 90 1012.4
20260904033501 70 29 0.0 0.0 0.00 0.01 0.01 90 1012.5
20260904033002 70 30 0.0 0.0 0.00 0.01 0.01 90 1012.5
20260904032501 70 30 0.0 0.0 0.00 0.01 0.01 90 1012.4
20260904032001 70 30 0.0 0.0 0.00 0.01 0.01 90 1012.4
20260904031501 70 31 0.0 0.0 0.00 0.01 0.01 90 1012.3
20260904031002 70 32 0.0 0.0 0.00 0.01 0.01 90 1012.3
20260904030501 70 32 0.0 0.0 0.00 0.01 0.01 90 1012.1
20260904030002 70 32 0.0 0.0 0.00 0.01 0.01 90 1012.3
20260904025501 70 34 0.0 0.0 0.00 0.01 0.01 90 1012.1
20260904025001 70 33 0.0 0.0 0.00 0.01 0.01 90 1012.3
20260904024501 70 32 0.0 0.0 0.00 0.01 0.01 90 1012.1
20260904024002 70 32 0.0 0.0 0.00 0.01 0.01 90 1012.1
20260904023501 71 32 0.0 0.0 0.00 0.01 0.01 90 1012.3
20260904023000 71 32 0.0 0.0 0.00 0.01 0.01 90 1012.4
20260904022459 71 34 0.0 0.0 0.00 0.01 0.01 90 1012.5
20260904021958 71 32 0.0 0.0 0.00 0.01 0.01 90 1012.5
20260904021458 71 32 0.0 0.0 0.00 0.01 0.01 90 1012.5
20260904020953 72 32 0.0 0.0 0.00 0.01 0.01 90 1012.5
20260904020446 72 30 0.0 0.0 0.00 0.01 0.01 90 1012.5
20260904015940 72 31 0.0 0.0 0.00 0.04 0.01 90 1012.6
20260904015434 72 32 0.0 0.0 0.00 0.04 0.01 89 1012.5
20260904014934 73 30 0.0 0.0 0.00 0.04 0.01 89 1012.4
20260904014432 73 30 0.0 0.0 0.00 0.04 0.01 89 1012.4
20260904013931 73 30 0.0 0.0 0.00 0.05 0.01 89 1012.4
20260904013429 73 32 0.0 0.0 0.00 0.07 0.01 89 1012.3
20260904012930 73 29 0.0 0.0 0.00 0.08 0.01 89 1012.3
20260904012430 73 30 0.0 0.0 0.00 0.08 0.01 88 1012.4
20260904011929 73 30 0.0 0.0 0.01 0.08 0.01 88 1012.3
20260904011430 73 29 0.0 0.0 0.01 0.08 0.01 88 1012.1
20260904010929 73 29 0.0 0.0 0.01 0.08 0.01 88 1012.4
20260904010429 73 28 0.0 0.0 0.01 0.09 0.01 88 1012.4
20260904005930 74 28 0.0 0.0 0.01 0.09 0.01 88 1012.3
20260904005429 74 26 0.0 0.0 0.01 0.09 0.01 88 1012.0
20260904004929 74 28 0.0 0.0 0.01 0.09 0.01 88 1011.9
20260904004429 74 28 0.0 0.0 0.01 0.10 0.01 88 1012.0
20260904003928 74 29 0.0 0.0 0.01 0.11 0.01 88 1012.0
20260904003429 75 28 0.0 0.0 0.01 0.12 0.01 88 1012.0
20260904002929 75 29 0.0 0.0 0.01 0.14 0.01 88 1011.9
20260904002430 75 29 0.0 0.0 0.01 0.15 0.01 87 1011.8
20260904001929 75 26 0.0 0.0 0.00 0.15 0.00 87 1011.9
20260904001429 75 25 0.0 0.0 0.00 0.15 0.00 86 1011.8
20260904000928 76 30 0.0 0.0 0.00 0.16 0.00 86 1011.5
20260904000429 76 30 0.0 0.0 0.00 0.16 0.00 86 1011.6
20260903235929 76 31 0.0 0.0 0.00 0.17 0.00 86 1011.6
20260903235429 76 32 0.0 0.0 0.00 0.30 0.00 86 1011.5
20260903234929 76 30 0.0 0.0 0.00 0.32 0.00 85 1011.5
20260903234429 76 30 0.0 0.0 0.00 0.33 0.00 85 1011.5
20260903233929 76 30 0.0 0.0 0.00 0.36 0.00 85 1011.5
20260903233429 76 30 0.0 0.0 0.00 0.50 0.00 85 1011.7
20260903232929 76 32 0.0 0.0 0.00 0.64 0.00 85 1011.7
20260903232430 76 229 0.0 0.0 0.00 0.78 0.00 85 1011.6
20260903231929 76 229 0.0 0.0 0.00 0.96 0.00 84 1011.6
20260903231429 76 229 0.0 0.0 0.00 1.12 0.00 84 1011.7
20260903230929 76 229 0.0 0.0 0.00 1.17 0.00 84 1011.6
20260903230426 76 229 0.0 0.0 0.00 1.18 0.00 84 1011.6
20260903225920 76 229 0.0 0.0 0.00 1.18 0.00 84 1011.6
20260903225414 76 229 0.0 0.0 0.00 1.18 0.00 83 1011.5
20260903224910 77 229 0.0 0.0 0.00 1.18 0.00 83 1011.6
20260903224410 77 229 0.0 0.0 0.00 1.18 0.00 83 1011.5
20260903223910 77 229 0.0 0.0 0.00 1.18 0.00 83 1011.5
20260903223408 77 229 0.0 0.0 0.00 1.18 0.00 83 1011.4
20260903222908 77 229 0.0 0.0 0.00 1.18 0.00 82 1011.4
20260903222407 77 229 0.0 0.0 0.00 1.18 0.00 83 1011.3
20260903221906 77 229 0.0 0.0 0.00 1.18 0.00 82 1011.2
20260903221406 77 229 0.0 0.0 0.00 1.18 0.00 83 1011.4
20260903220906 77 229 0.0 0.0 0.00 1.18 0.00 82 1011.2
20260903220406 77 229 0.0 0.0 0.00 1.18 0.00 82 1011.1
20260903215906 77 229 0.0 0.0 0.00 1.18 0.00 82 1011.2
20260903215402 77 229 0.0 0.0 0.00 1.18 0.00 82 1011.2
20260903214902 78 229 0.0 0.0 0.00 1.18 0.00 81 1011.2
20260903214402 78 229 0.0 0.0 0.00 1.18 0.00 81 1011.2
20260903213902 78 230 0.0 0.0 0.00 1.18 0.00 80 1011.3
20260903213402 79 230 0.0 0.0 0.00 1.18 0.00 81 1011.2
20260903212902 79 230 0.0 0.0 0.00 1.18 0.00 80 1011.3
20260903212403 79 230 0.0 0.0 0.00 1.18 0.00 80 1011.3
20260903211902 79 230 0.0 0.0 0.00 1.18 0.00 78 1011.5
20260903211402 79 230 0.0 0.0 0.00 1.18 0.00 79 1011.5
20260903210902 80 230 0.0 0.0 0.00 1.18 0.00 78 1011.7
20260903210402 79 230 0.0 0.0 0.00 1.18 0.00 78 1011.7
20260903205902 79 230 0.0 0.0 0.00 1.18 0.00 78 1011.6
20260903205402 79 230 0.0 0.0 0.00 1.18 0.00 80 1011.5
20260903204901 79 230 0.0 0.0 0.00 1.18 0.00 79 1011.5
20260903204400 79 230 0.0 0.0 0.00 1.18 0.00 78 1011.6
20260903203901 79 230 0.0 0.0 0.00 1.18 0.00 78 1011.6
20260903203401 79 230 0.0 0.0 0.00 1.18 0.00 79 1011.6
20260903202901 79 230 0.0 0.0 0.00 1.18 0.00 78 1011.6
20260903202401 79 230 0.0 0.0 0.00 1.18 0.00 77 1011.7
20260903201901 79 230 0.0 0.0 0.00 1.18 0.00 78 1011.8
20260903201355 79 230 0.0 0.0 0.00 1.18 0.00 78 1011.8
20260903200849 78 230 0.0 0.0 0.00 1.18 0.00 78 1011.8
20260903200350 78 230 0.0 0.0 0.00 1.18 0.00 77 1011.8
20260903195848 78 230 0.0 0.0 0.00 1.18 0.00 78 1011.8
20260903195345 78 230 0.0 0.0 0.00 1.18 0.00 78 1011.9
20260903194844 78 230 0.0 0.0 0.00 1.18 0.00 80 1011.9
20260903194342 77 230 0.0 0.0 0.00 1.18 0.00 79 1011.9
20260903193840 77 230 0.0 0.0 0.00 1.18 0.00 79 1011.9
20260903193338 77 230 0.0 0.0 0.00 1.18 0.00 78 1012.0
20260903192836 78 229 0.0 0.0 0.00 1.18 0.00 80 1011.9
20260903192334 78 229 0.0 0.0 0.00 1.18 0.00 81 1011.9
20260903191830 78 229 0.0 0.0 0.00 1.18 0.00 80 1011.9
20260903191329 78 229 0.0 0.0 0.00 1.18 0.00 79 1011.9
20260903190829 79 229 0.0 0.0 0.00 1.18 0.00 78 1011.9
20260903190329 79 229 0.0 0.0 0.00 1.18 0.00 78 1011.9
20260903185830 80 229 0.0 0.0 0.00 1.18 0.00 78 1011.8
20260903185329 80 229 0.0 0.0 0.00 1.18 0.00 79 1011.8
20260903184829 79 229 0.0 0.0 0.00 1.18 0.00 80 1011.8
20260903184330 79 229 0.0 0.0 0.00 1.18 0.00 79 1011.9
20260903183829 79 230 0.0 0.0 0.00 1.18 0.00 77 1012.0
20260903183330 80 230 0.0 0.0 0.00 1.18 0.00 76 1012.0
20260903182829 80 230 0.0 0.0 0.00 1.18 0.00 76 1012.1
20260903182330 81 230 0.0 0.0 0.00 1.18 0.00 73 1012.4
20260903181828 81 230 0.0 1.0 0.00 1.18 0.00 71 1012.1
20260903181331 82 229 0.0 2.0 0.00 1.18 0.00 69 1012.1
20260903180829 83 230 0.0 2.0 0.00 1.18 0.00 66 1012.0
20260903180330 83 230 0.0 0.0 0.00 1.18 0.00 65 1011.9
20260903175830 83 230 0.0 0.0 0.00 1.18 0.00 68 1012.0
20260903175330 82 231 0.0 0.0 0.00 1.18 0.00 68 1012.0
20260903174830 82 230 0.0 1.0 0.00 1.18 0.00 66 1012.0
20260903174330 83 230 0.0 1.0 0.00 1.18 0.00 66 1012.1
20260903173829 83 234 0.0 0.0 0.00 1.18 0.00 67 1012.1
20260903173331 83 234 0.0 3.0 0.00 1.18 0.00 66 1012.1
20260903172829 82 234 0.0 4.0 0.00 1.18 0.00 66 1012.3
20260903172333 83 234 0.0 4.0 0.00 1.18 0.00 66 1012.3
20260903171829 83 234 0.0 2.0 0.00 1.18 0.00 64 1012.1
20260903171331 83 234 0.0 3.0 0.00 1.18 0.00 64 1012.1
20260903170829 83 227 0.0 3.0 0.00 1.18 0.00 66 1012.0
20260903170330 82 227 0.0 2.0 0.00 1.18 0.00 64 1012.1
20260903165823 83 231 0.0 1.0 0.00 1.18 0.00 64 1012.3
20260903165317 83 231 0.0 1.0 0.00 1.18 0.00 64 1012.3
20260903164811 83 230 0.0 0.0 0.00 1.18 0.00 66 1012.4
20260903164312 82 230 0.0 0.0 0.00 1.18 0.00 65 1012.3
20260903163812 82 229 0.0 0.0 0.00 1.18 0.00 65 1012.3
20260903163312 81 229 0.0 0.0 0.00 1.18 0.00 64 1012.4
20260903162809 81 229 0.0 0.0 0.00 1.18 0.00 63 1012.5
20260903162307 82 229 0.0 0.0 0.00 1.18 0.00 64 1012.5
20260903161807 82 229 0.0 0.0 0.00 1.18 0.00 63 1012.5
20260903161307 81 230 0.0 0.0 0.00 1.18 0.00 65 1012.6
20260903160808 80 230 0.0 0.0 0.00 1.18 0.00 62 1012.7
20260903160307 80 230 0.0 0.0 0.00 1.18 0.00 63 1012.8
20260903155805 80 231 0.0 1.0 0.00 1.18 0.00 65 1012.8
20260903155306 80 229 0.0 1.0 0.00 1.18 0.00 64 1012.9
20260903154805 80 229 0.0 4.0 0.00 1.18 0.00 67 1012.9
20260903154303 79 229 0.0 4.0 0.00 1.18 0.00 67 1013.0
20260903153802 79 228 0.0 3.0 0.00 1.18 0.00 69 1013.0
20260903153303 78 231 0.0 3.0 0.00 1.18 0.00 72 1013.1
20260903152802 78 229 0.0 1.0 0.00 1.18 0.00 73 1013.1
20260903152306 78 229 0.0 7.0 0.00 1.18 0.00 74 1013.1
20260903151802 77 229 0.0 7.0 0.00 1.18 0.00 76 1013.1
20260903151303 77 229 0.0 2.0 0.00 1.18 0.00 78 1013.1
20260903150802 77 230 0.0 2.0 0.00 1.18 0.00 79 1013.1
20260903150302 77 242 0.0 1.0 0.00 1.18 0.00 82 1013.1
20260903145802 77 242 0.0 1.0 0.00 1.18 0.00 82 1013.2
20260903145305 76 242 0.0 3.0 0.00 1.18 0.00 82 1013.2
20260903144801 76 242 0.0 3.0 0.00 1.18 0.00 82 1013.2
20260903144300 76 234 0.0 3.0 0.00 1.18 0.00 82 1013.3
20260903143800 76 234 0.0 4.0 0.00 1.18 0.00 82 1013.3
20260903143300 76 219 0.0 4.0 0.00 1.18 0.00 84 1013.3
20260903142800 76 227 0.0 2.0 0.00 1.18 0.00 84 1013.4
20260903142300 75 238 0.0 2.0 0.00 1.18 0.00 84 1013.3
20260903141800 75 237 0.0 2.0 0.00 1.18 0.00 84 1013.3